Theta_e
312 312 317 319 322 323 323 323 322 322 322 322 323 325 328 328 327 331 340 338 325 333 344 343 338 336 335 334 335 337 337 334 330 328 327 327 325 320 318 324 327 329 331 328 324 325 327 327 325
319 317 319 321 321 323 324 324 322 323 322 321 322 326 327 327 329 333 337 336 333 330 339 345 339 335 334 334 337 336 337 336 332 328 328 328 323 319 318 325 330 331 328 326 323 320 322 323 325
318 319 322 324 323 323 324 323 322 322 321 321 322 325 328 327 331 335 339 327 331 331 337 341 342 335 334 332 331 333 336 337 335 329 329 329 321 319 326 330 331 330 327 324 316 316 316 320 324
318 319 319 319 321 323 322 323 322 322 322 321 321 325 327 333 333 339 332 327 328 338 335 338 337 336 334 333 331 332 333 337 335 331 331 328 325 325 327 330 331 331 327 322 313 314 315 317 319
318 320 322 323 323 323 321 321 320 322 322 324 323 323 326 331 335 332 333 324 324 326 328 331 333 336 338 338 333 332 329 326 327 326 331 328 328 328 329 331 331 329 330 324 317 311 312 311 315
318 319 322 323 323 322 320 320 320 321 322 323 325 323 324 332 332 333 325 323 323 323 323 326 328 332 334 336 333 331 330 328 326 323 327 326 328 329 331 328 328 328 326 313 311 308 308 309 310
320 322 323 323 323 322 320 320 321 321 321 322 324 325 327 332 331 330 325 324 323 322 322 323 326 333 333 334 333 331 329 326 328 328 327 327 327 326 327 327 326 327 317 312 311 307 307 307 308
318 321 322 323 322 321 321 320 320 320 322 324 324 324 323 333 331 330 332 332 325 322 324 325 327 335 334 333 332 331 330 330 328 328 327 326 331 328 323 320 320 325 315 310 307 306 306 306 306
319 321 322 323 323 322 320 320 319 320 320 321 323 324 329 332 331 332 333 330 330 324 325 325 328 333 333 332 331 329 328 328 329 328 325 329 329 327 329 329 328 327 314 310 306 306 306 306 306
320 322 322 323 322 320 319 320 320 320 320 321 322 323 327 331 331 332 332 333 333 331 327 325 328 331 333 331 330 330 329 327 327 328 327 325 330 329 329 329 327 324 315 311 309 307 306 306 306
320 321 322 322 320 319 319 320 319 320 321 320 321 321 323 330 330 331 331 331 333 332 328 325 327 331 330 332 330 328 329 329 328 328 325 327 327 326 329 328 326 321 316 312 311 308 309 314 313
320 319 320 320 319 319 319 318 319 319 320 320 320 320 323 324 329 330 330 331 331 330 325 325 328 328 329 330 329 329 329 331 330 327 328 327 328 326 328 323 323 318 316 315 312 314 317 316 316
320 320 319 318 319 318 318 319 319 319 318 319 319 319 322 324 327 329 330 331 330 330 327 326 327 327 328 328 327 329 329 330 330 328 328 327 327 324 325 320 322 319 318 316 316 320 319 318 317
320 319 319 319 319 319 320 320 319 319 318 319 319 320 322 326 328 329 331 330 329 329 328 326 326 327 327 328 328 328 328 329 329 328 328 327 325 323 322 321 322 322 321 319 320 320 319 317 317
318 320 320 320 320 321 320 321 321 320 319 318 320 322 326 326 329 329 331 330 328 328 328 324 325 326 326 326 326 327 327 326 326 327 327 327 324 323 319 318 322 323 322 321 321 319 317 316 316
319 320 321 322 323 322 321 322 322 320 319 319 322 324 326 327 329 330 330 329 328 328 328 325 324 324 325 325 324 324 325 326 327 327 324 325 321 319 314 315 322 323 323 321 320 318 316 316 316
320 321 322 322 323 321 320 321 323 321 321 321 322 324 327 329 329 330 330 329 328 327 327 325 324 324 324 323 325 324 325 322 325 325 324 321 319 314 313 317 320 321 317 316 317 316 316 316 316
320 321 320 321 323 323 321 322 322 321 321 322 322 324 327 329 329 329 330 328 328 327 327 324 325 324 322 323 323 322 321 321 320 319 317 315 312 312 314 316 315 314 313 314 311 313 316 315 315
318 319 321 323 323 322 322 322 322 322 320 321 322 323 325 328 328 329 330 328 328 327 327 324 324 324 322 323 322 320 318 315 314 315 314 312 313 315 315 315 313 315 313 311 310 314 314 313 314
317 319 320 321 322 322 321 322 322 322 322 320 321 323 325 327 328 330 330 328 328 327 326 324 324 323 321 323 321 318 316 314 313 313 312 313 312 314 311 315 316 316 313 313 313 316 315 314 313
317 319 321 321 322 322 321 322 322 323 322 321 319 322 323 326 329 330 331 328 327 327 326 324 323 322 323 322 322 320 316 314 314 314 313 312 312 313 314 317 315 315 317 317 318 318 318 318 317
318 319 319 319 321 321 322 323 323 324 322 322 321 322 323 324 328 330 331 329 328 328 326 322 323 323 322 322 322 320 317 315 314 314 309 312 312 313 315 316 317 315 318 319 319 320 321 320 320
318 318 318 319 320 320 321 322 323 324 323 322 323 323 324 324 327 330 332 330 330 329 325 323 323 323 322 322 322 321 317 314 313 313 311 314 313 312 309 314 317 318 319 319 320 321 319 321 321
317 317 318 319 320 322 322 324 325 324 323 324 324 322 322 324 326 329 331 331 330 329 326 323 323 323 322 322 321 321 321 316 315 314 314 315 315 314 313 313 316 318 319 321 321 318 318 318 320
316 318 321 323 324 324 323 323 324 324 324 324 323 323 322 323 325 328 332 331 330 329 326 323 322 323 323 323 321 321 321 319 316 315 315 315 314 316 316 317 319 320 320 321 318 316 320 318 318
317 318 321 323 326 326 325 324 323 322 323 322 322 323 323 324 325 327 331 331 330 329 325 324 323 322 322 323 322 321 321 320 318 321 317 315 315 316 317 318 319 320 320 320 319 319 321 321 320
316 318 318 320 322 324 325 324 324 323 323 324 323 322 323 323 324 327 329 332 331 330 327 324 325 322 323 322 322 322 321 321 319 318 319 317 316 316 317 319 319 321 321 320 318 320 319 320 320
311 313 316 318 320 323 322 322 323 323 324 324 323 324 323 322 323 326 328 331 331 329 328 326 323 323 322 323 322 322 322 322 321 320 318 318 317 316 317 317 320 320 321 321 321 321 320 321 319
313 314 315 317 319 320 322 322 323 324 323 323 324 324 324 324 323 325 328 330 331 330 329 326 325 324 325 323 323 323 322 322 322 322 321 320 318 317 318 319 319 321 322 321 321 320 320 321 320
316 316 315 318 319 319 321 321 322 323 323 324 323 324 323 325 325 325 328 329 331 330 329 327 325 324 325 325 323 323 323 322 323 323 322 321 320 319 320 320 321 322 322 321 321 321 321 320 321
Wind_Speed
8 5 4 9 7 8 14 4 5 4 5 1 3 7 10 13 9 5 1 3 8 5 7 15 23 23 20 18 20 25 26 26 27 27 26 25 24 22 21 21 20 21 21 20 17 16 17 19 18
5 6 7 12 8 12 10 10 5 5 3 2 6 8 9 10 4 3 1 7 4 8 10 10 20 25 21 17 18 22 27 28 29 30 29 27 26 24 23 23 24 24 20 18 17 16 19 21 22
9 8 13 10 13 13 9 8 5 1 5 8 5 5 6 4 1 1 4 7 5 8 9 12 16 22 22 21 19 19 23 28 31 33 32 29 27 25 25 26 24 21 20 17 16 17 20 21 21
6 8 12 10 17 12 7 5 3 6 5 7 11 5 6 3 1 3 8 7 6 5 10 16 14 18 24 23 21 23 19 22 29 32 32 30 28 28 28 27 24 22 19 17 17 18 21 20 22
10 12 12 17 17 10 4 5 4 9 5 5 9 15 3 5 6 6 7 10 9 11 16 13 17 21 22 20 22 27 28 36 30 3 15 24 26 29 31 28 23 18 21 21 20 20 21 20 22
13 12 13 15 16 4 5 7 5 10 10 6 8 14 9 6 7 8 12 11 12 13 17 16 17 19 19 19 22 23 23 27 24 35 25 20 21 29 32 25 20 20 20 20 21 22 21 21 23
16 13 16 20 17 11 8 10 8 8 10 14 14 10 4 9 8 12 9 10 13 14 17 18 17 18 17 20 21 21 28 27 29 30 24 27 38 39 29 21 19 21 20 23 22 22 22 22 23
20 13 22 19 14 14 5 7 10 9 12 3 5 9 9 9 9 7 7 6 12 13 15 16 15 19 18 19 20 19 17 18 21 26 24 10 41 33 32 23 20 24 24 23 24 23 23 22 22
12 13 16 20 17 9 4 8 13 10 12 12 9 14 2 4 6 7 8 8 10 11 13 15 16 21 24 20 21 21 23 18 14 21 12 20 35 40 35 31 31 26 25 25 25 24 24 24 24
18 13 21 19 12 9 11 11 16 16 16 19 16 15 11 8 9 11 11 10 10 8 9 14 15 20 24 23 23 25 25 18 20 19 13 13 29 33 31 30 29 26 27 26 25 24 24 25 27
21 19 21 20 10 15 16 16 19 16 19 20 17 14 10 12 14 14 14 12 11 11 9 11 10 19 17 21 26 21 21 26 26 26 21 21 34 28 29 31 29 31 29 29 26 26 24 21 23
20 25 23 24 23 15 18 21 21 23 21 20 22 16 15 16 17 16 14 12 10 11 9 10 11 14 16 18 24 22 19 19 22 24 22 23 34 35 34 34 34 36 31 30 28 24 19 18 18
21 20 24 23 20 22 23 22 23 25 24 24 21 22 19 17 18 16 14 12 10 10 11 10 11 11 13 17 17 19 25 19 22 23 25 26 48 44 36 37 32 33 31 29 26 19 19 17 16
18 21 23 26 26 23 21 24 24 29 23 21 19 20 19 17 17 15 14 13 11 9 10 11 12 13 13 17 18 18 20 19 22 22 22 34 50 46 39 37 31 28 27 25 22 20 18 17 15
21 19 20 22 24 23 24 25 24 31 25 22 20 20 16 16 16 16 14 13 12 10 12 11 12 11 10 11 13 15 18 22 21 20 41 58 54 46 43 34 32 29 27 26 22 22 18 16 15
13 18 19 18 25 20 23 25 21 21 19 19 18 16 13 15 16 15 14 13 11 11 11 12 12 10 9 12 12 12 14 20 30 33 45 52 55 49 46 34 32 28 28 27 23 22 20 16 15
15 18 20 20 17 13 13 18 15 4 8 14 15 14 13 15 15 15 15 14 12 11 12 13 11 10 8 8 7 12 19 33 43 50 54 54 49 48 39 35 34 32 29 27 26 22 19 16 15
18 21 20 20 20 16 14 20 17 17 18 18 17 14 15 17 17 17 17 14 12 12 13 15 12 10 9 10 16 21 32 33 39 43 43 43 41 40 36 37 31 26 24 23 22 21 18 18 15
21 24 23 18 12 5 11 18 18 17 19 18 18 20 17 18 16 18 18 16 14 13 14 15 14 13 14 15 26 30 38 44 43 40 39 42 40 36 36 32 28 33 27 26 26 21 21 17 15
24 26 24 20 22 11 14 20 20 20 20 22 22 21 17 17 17 19 20 19 17 15 15 17 16 16 18 18 32 40 46 46 43 42 41 35 41 40 38 30 28 31 27 24 21 20 17 14 17
25 24 21 24 22 16 14 21 23 23 26 27 26 19 17 19 21 22 23 21 18 18 17 19 20 21 22 22 29 35 42 41 39 35 33 32 39 37 35 31 32 31 25 25 20 19 18 16 16
22 21 22 20 19 15 17 15 17 15 12 18 18 19 22 18 21 23 24 23 21 19 18 19 22 22 24 28 32 37 44 48 45 42 39 44 41 37 37 32 32 29 21 22 20 17 16 13 12
21 17 17 21 20 17 20 15 16 17 19 15 15 22 21 19 20 25 25 24 22 21 21 20 24 23 26 27 31 37 43 46 47 43 42 43 46 41 36 28 26 27 28 21 21 18 20 15 14
17 16 16 14 12 16 18 16 13 14 16 13 12 15 20 18 19 23 24 23 23 22 21 23 26 27 28 30 30 33 36 46 45 43 44 48 44 35 34 28 30 25 23 21 24 22 20 21 17
18 14 9 11 11 13 17 13 13 10 5 4 8 7 12 15 19 23 26 27 26 26 24 26 28 29 30 30 31 33 35 45 45 50 49 50 42 37 35 30 25 25 25 21 25 26 22 22 22
18 17 8 11 10 10 20 9 10 13 13 19 15 10 4 9 17 24 27 27 27 28 26 29 30 31 31 33 32 34 36 44 47 41 46 49 48 42 34 30 28 26 23 25 25 24 23 23 24
17 17 19 22 17 9 9 8 8 11 10 8 7 11 14 17 17 24 27 28 28 29 28 28 31 30 33 34 36 35 35 38 49 51 50 50 49 47 37 29 30 26 26 27 26 27 27 26 27
24 15 12 12 16 17 13 17 14 5 9 11 9 6 9 16 18 22 28 29 28 27 27 27 28 29 31 33 33 36 37 35 38 46 52 49 52 48 41 40 33 31 29 29 28 27 29 29 31
14 20 16 12 13 11 9 7 10 4 8 5 4 6 7 10 16 24 27 29 28 26 27 28 28 29 28 34 35 37 38 36 36 36 40 49 53 48 47 40 43 34 31 31 30 31 32 31 32
13 16 18 12 16 12 14 15 9 2 5 7 5 5 4 3 12 21 24 28 29 29 29 29 29 30 32 30 31 38 37 38 39 39 36 37 46 47 44 41 35 34 34 34 34 35 35 35 35
Wind_Direction
203 203 256 250 246 227 272 235 333 270 219 206 324 272 321 333 307 343 56 347 327 275 227 243 220 213 214 217 218 215 211 208 203 198 194 188 180 178 167 162 160 153 153 150 145 154 147 153 142
184 211 233 268 255 263 283 107 200 262 0 308 247 240 253 259 20 63 340 291 297 302 229 218 229 219 217 219 217 219 217 214 208 201 195 189 183 176 170 165 163 158 159 150 149 157 157 146 146
176 214 264 239 244 267 320 84 272 291 237 241 247 237 306 275 55 110 220 260 270 284 253 240 244 228 229 228 225 224 222 217 207 201 194 188 184 177 172 165 168 165 163 153 156 157 152 151 150
192 220 248 254 263 269 280 14 315 273 206 237 231 253 178 240 182 209 254 257 253 250 256 238 255 237 233 234 235 222 223 225 207 196 191 186 184 181 173 170 169 173 160 162 162 160 152 152 149
230 258 256 250 263 274 273 297 311 274 250 196 239 251 196 181 194 222 248 266 257 261 264 250 244 244 243 237 230 228 249 253 272 50 207 187 188 187 175 172 174 171 159 158 161 153 153 150 149
237 248 261 261 265 175 254 245 254 265 256 238 245 259 279 167 200 226 257 272 261 266 270 254 254 242 239 233 231 225 250 226 243 233 207 207 202 190 182 178 176 178 174 165 156 153 153 152 150
248 258 258 284 288 285 242 221 238 260 278 247 217 268 222 177 198 236 266 265 265 267 271 262 242 247 239 225 223 225 225 245 229 199 218 247 214 190 184 175 185 184 171 157 155 152 153 152 150
249 259 271 270 273 284 316 190 233 247 263 347 256 251 284 150 214 229 248 229 269 270 265 257 237 228 234 223 220 207 196 202 222 219 220 221 173 183 188 182 193 172 162 156 153 152 151 150 151
249 259 257 263 266 274 243 223 230 249 264 248 248 259 319 183 206 208 224 246 254 262 262 257 233 227 225 222 218 203 195 193 211 192 183 182 178 176 177 172 171 165 162 155 151 151 151 149 149
232 241 251 272 314 287 264 233 251 253 260 236 225 237 244 227 220 233 245 250 250 245 254 256 242 222 231 230 223 227 219 222 209 203 221 202 162 170 169 172 170 167 163 156 152 150 147 149 143
227 244 272 283 242 280 281 264 241 261 255 263 272 288 280 222 239 244 247 245 246 239 241 256 241 217 220 218 229 230 234 237 233 246 233 216 185 172 173 170 172 167 164 155 154 151 140 149 147
240 248 265 271 281 265 265 269 266 262 264 269 275 277 277 257 245 247 248 242 227 247 236 241 234 223 217 223 233 237 241 223 226 221 221 217 196 178 181 173 173 165 165 159 156 138 154 146 157
236 249 258 266 260 265 266 267 270 266 268 273 274 273 267 260 245 243 240 233 220 224 237 241 236 235 233 233 232 238 231 217 221 221 214 218 186 174 179 171 170 163 166 163 149 153 151 152 157
259 251 256 263 264 259 255 264 268 264 257 260 262 262 266 249 240 235 227 223 215 215 241 229 229 228 231 237 243 232 232 225 232 237 237 204 179 170 171 168 168 164 163 165 153 159 154 153 157
263 263 269 258 258 255 259 260 257 265 256 250 253 257 252 245 232 225 225 218 217 209 224 218 227 228 221 231 236 233 235 240 232 225 183 183 177 168 166 172 170 168 162 160 167 156 153 156 154
256 251 262 264 251 247 236 256 261 256 232 233 244 255 242 231 222 221 219 216 213 203 207 219 223 221 216 225 244 237 230 224 208 189 170 170 167 163 160 172 169 165 171 167 171 155 156 159 160
241 256 259 268 229 238 219 257 271 195 224 242 254 253 229 216 215 216 212 208 206 202 197 217 215 209 215 207 210 215 194 172 176 178 170 164 165 161 163 181 178 172 171 172 170 159 152 162 168
236 244 250 253 266 214 248 257 254 254 220 225 246 250 231 214 213 211 206 200 200 197 195 207 209 195 191 185 181 163 163 152 152 150 151 151 149 151 178 187 180 170 175 175 167 162 163 177 170
248 256 263 273 265 289 260 273 270 269 244 250 230 241 233 223 212 205 203 196 195 194 204 199 191 184 178 179 166 149 147 142 141 142 144 155 169 180 184 177 170 164 180 179 184 176 178 168 171
248 258 260 263 273 236 261 269 271 265 258 251 248 243 227 214 207 200 200 198 196 198 190 199 194 179 172 178 169 157 153 153 152 151 154 168 177 183 172 172 177 187 185 184 182 182 173 179 185
243 247 251 256 270 274 255 265 261 259 251 253 252 241 247 211 205 200 199 202 199 197 193 199 191 182 176 179 176 173 169 161 164 169 179 177 180 174 174 187 186 185 192 191 191 183 188 181 199
244 241 249 263 268 265 258 276 277 273 256 225 234 231 240 223 203 200 200 200 202 198 192 193 191 190 185 185 185 182 177 175 176 179 177 174 177 189 191 191 196 191 196 208 206 200 193 194 205
249 251 247 257 256 266 255 252 263 257 254 239 235 214 220 221 203 198 200 200 199 195 189 192 193 193 189 189 190 188 186 182 180 181 179 182 189 195 194 193 192 197 201 207 213 212 214 214 209
239 247 244 257 250 249 248 252 257 256 236 220 238 225 212 213 203 199 197 196 193 193 189 192 194 193 194 194 193 197 197 190 188 187 187 189 196 196 199 197 209 209 202 206 213 227 224 219 225
229 227 230 220 227 246 251 230 233 257 357 240 161 207 209 208 204 199 191 193 190 191 186 195 193 196 197 197 196 199 203 199 195 195 197 194 201 200 202 200 208 211 209 212 223 228 227 232 233
204 204 227 217 238 259 230 222 239 243 253 239 234 249 208 199 205 200 195 194 192 191 186 192 193 194 196 199 199 198 203 201 195 196 202 201 201 203 202 212 208 214 218 220 226 226 230 234 241
199 213 235 267 276 272 269 247 217 240 244 238 210 217 231 222 206 205 198 195 195 191 191 191 195 195 201 200 203 205 203 206 204 205 203 205 207 208 204 218 223 217 219 225 231 232 237 240 247
237 238 228 236 256 262 250 243 249 153 206 210 200 247 275 231 208 203 200 195 197 193 192 192 194 198 199 198 201 202 201 205 210 212 210 213 214 212 213 223 227 226 225 227 230 236 241 241 249
206 229 238 250 228 255 276 269 20 145 193 264 37 354 301 255 221 199 201 196 195 194 191 193 193 196 198 201 202 199 201 205 208 208 215 210 219 213 219 225 222 229 231 231 233 240 244 246 253
237 217 229 235 242 246 239 258 309 336 233 120 316 100 37 290 218 198 199 194 195 195 193 194 195 197 197 201 198 202 205 208 207 208 214 217 220 217 218 216 222 229 231 234 236 241 245 248 251